Volver al catálogo

TRANSAT DEB

ActivoPO
NORAD 57001·DEBRIS·🇺🇸 United States

Lanzado Oct 28, 1977 desde Vandenberg Space Force Base

Loading…

Próximos Pases (próximas 24 horas)

TLE

ActualizadoSource: Space-Track

Época: Sep 14, 2026, 17:13 UTC

1 57001U 77106D   26257.71737996  .00000443  00000-0  66169-3 0  9997
2 57001  89.6441  68.8289 0026312 109.7905 250.6087 13.51683143304542

Sigue TRANSAT DEB en tiempo real con AllMySat

Download on the App Store